TimeHST,TemperatureF,Dew PointF,Humidity,Sea Level PressureIn,VisibilityMPH,Wind Direction,Wind SpeedMPH,Gust SpeedMPH,PrecipitationIn,Events,Conditions,WindDirDegrees,DateUTC
12:57 AM,77.0,70.0,79,29.93,10.0,NE,6.9,-,N/A,,Partly Cloudy,50,2013-08-29 10:57:00
1:57 AM,75.2,71.6,89,29.92,10.0,NE,9.2,-,N/A,,Mostly Cloudy,40,2013-08-29 11:57:00
2:57 AM,75.2,71.1,87,29.92,10.0,Variable,4.6,-,0.00,Rain,Light Rain,0,2013-08-29 12:57:00
3:57 AM,75.2,69.1,81,29.91,10.0,Calm,Calm,-,0.00,Rain,Light Rain,0,2013-08-29 13:57:00
4:57 AM,75.2,69.1,81,29.91,10.0,WSW,4.6,-,0.00,,Mostly Cloudy,250,2013-08-29 14:57:00
5:57 AM,75.2,69.1,81,29.92,10.0,Calm,Calm,-,0.00,,Overcast,0,2013-08-29 15:57:00
6:57 AM,75.2,70.0,84,29.94,10.0,Calm,Calm,-,N/A,,Mostly Cloudy,0,2013-08-29 16:57:00
7:57 AM,75.2,70.0,84,29.94,10.0,Calm,Calm,-,N/A,,Scattered Clouds,0,2013-08-29 17:57:00
8:57 AM,77.0,70.0,79,29.95,10.0,Calm,Calm,-,N/A,,Partly Cloudy,0,2013-08-29 18:57:00
9:57 AM,78.8,72.0,79,29.95,10.0,Variable,3.5,-,N/A,,Mostly Cloudy,0,2013-08-29 19:57:00
10:57 AM,80.6,71.1,73,29.95,10.0,ENE,6.9,-,N/A,,Scattered Clouds,60,2013-08-29 20:57:00
11:57 AM,82.4,70.0,66,29.94,10.0,ENE,8.1,-,N/A,,Clear,60,2013-08-29 21:57:00
12:57 PM,84.2,69.1,60,29.93,10.0,NE,9.2,-,N/A,,Clear,40,2013-08-29 22:57:00
1:57 PM,86.0,70.0,59,29.91,10.0,NE,8.1,-,N/A,,Partly Cloudy,40,2013-08-29 23:57:00
2:57 PM,87.8,70.0,55,29.90,10.0,NE,6.9,-,N/A,,Clear,50,2013-08-30 00:57:00
3:57 PM,86.0,70.0,59,29.89,10.0,NE,6.9,-,N/A,,Clear,50,2013-08-30 01:57:00
4:57 PM,84.2,69.1,60,29.90,10.0,NE,9.2,-,N/A,,Partly Cloudy,50,2013-08-30 02:57:00
5:57 PM,80.6,69.1,68,29.91,10.0,ENE,6.9,-,N/A,,Clear,60,2013-08-30 03:57:00
6:57 PM,80.6,69.1,68,29.93,10.0,ENE,4.6,-,N/A,,Mostly Cloudy,70,2013-08-30 04:57:00
7:57 PM,78.8,69.1,72,29.94,10.0,ENE,4.6,-,N/A,,Partly Cloudy,70,2013-08-30 05:57:00
8:57 PM,77.0,68.0,74,29.96,10.0,Variable,5.8,-,N/A,,Mostly Cloudy,0,2013-08-30 06:57:00
9:04 PM,77.0,69.8,78,29.97,6.2,East,4.6,-,N/A,,Scattered Clouds,90,2013-08-30 07:04:00
9:57 PM,77.0,69.1,76,29.97,10.0,East,3.5,-,N/A,,Scattered Clouds,90,2013-08-30 07:57:00
10:25 PM,-9999,-9999,N/A,29.98,6.2,Variable,4.6,-,N/A,,Mostly Cloudy,0,2013-08-30 08:25:00
10:57 PM,73.4,69.1,86,29.97,10.0,ENE,5.8,-,N/A,,Scattered Clouds,70,2013-08-30 08:57:00
11:57 PM,-9999,-9999,N/A,29.97,10.0,Variable,3.5,-,N/A,,Partly Cloudy,0,2013-08-30 09:57:00